Weather History for Cape Newenham, AK

Change the Weather History Date:

Tuesday, October 9, 2012

  Actual Average Record
Temperature  
Mean Temperature 46 °F -  
Max Temperature 48 °F 40 °F 48 °F (2012)
Min Temperature 45 °F 33 °F -11 °F (2001)
Degree Days  
Heating Degree Days 18    
Moisture  
Dew Point 45 °F    
Average Humidity 96    
Maximum Humidity 100    
Minimum Humidity 86    
Precipitation  
Precipitation 0.02 in - - ()
Sea Level Pressure  
Sea Level Pressure 30.11 in    
Wind  
Wind Speed 9 mph (ESE)    
Max Wind Speed 23 mph    
Max Gust Speed 28 mph    
Visibility 9 miles    
Events Rain    
Averages and records for this station are not official NWS values.
T = Trace of Precipitation, MM = Missing Value Source: NWS Daily Summary

Daily Weather History Graph

Daily Weather History Graph

Search for Another Location

Airport:

Trip Planner

Search our weather history database for the weather conditions in past years. The results will help you decide how hot, cold, wet, or windy it might be!

Date:

Astronomy

Oct. 09, 2012 Rise Set
Actual Time 9:12 AM AKDT 7:56 PM AKDT
Civil Twilight 8:32 AM AKDT 8:36 PM AKDT
Nautical Twilight 7:46 AM AKDT 9:22 PM AKDT
Astronomical Twilight 6:58 AM AKDT 10:10 PM AKDT
Moon 1:43 AM AKDT (10/9) 5:39 PM AKDT (10/9)
Length of Visible Light 12h 04m
Length of Day
10h 44m
Waning Crescent, 35% of the Moon is Illuminated
Oct 9
Waning Crescent
Oct 15
New
Oct 21
First Quarter
Oct 29
Full
Nov 6
Last Quarter

Hourly Weather History & Observations

Time (AKDT) Temp. Windchill Dew Point Humidity Pressure Visibility Wind Dir Wind Speed Gust Speed Precip Events Conditions
12:55 AM 48.4 °F - 44.2 °F 86% 30.14 in 10.0 mi Variable 5.8 mph - N/A   Clear
1:55 AM 47.8 °F - 43.9 °F 86% 30.14 in 10.0 mi Variable 3.5 mph - N/A   Clear
2:48 AM 46.4 °F 41.5 °F 44.6 °F 93% 30.14 in 10.0 mi East 10.4 mph - N/A   Mostly Cloudy
2:55 AM 47.1 °F - 45.3 °F 93% 30.14 in 10.0 mi ESE 10.4 mph - N/A   Mostly Cloudy
3:48 AM 46.4 °F 42.4 °F 46.4 °F 100% 30.15 in 10.0 mi ESE 8.1 mph - N/A   Overcast
3:55 AM 46.4 °F 42.9 °F 45.9 °F 98% 30.15 in 10.0 mi East 6.9 mph - N/A   Overcast
4:08 AM 46.4 °F 43.5 °F 46.4 °F 100% 30.15 in 10.0 mi East 5.8 mph - N/A   Overcast
4:28 AM 46.4 °F 42.4 °F 46.4 °F 100% 30.15 in 6.0 mi East 8.1 mph - N/A Rain Light Rain Showers
4:48 AM 46.4 °F 42.9 °F 44.6 °F 93% 30.14 in 9.0 mi ESE 6.9 mph - N/A   Overcast
4:55 AM 46.4 °F 41.5 °F 45.0 °F 95% 30.14 in 10.0 mi ESE 10.4 mph - N/A   Overcast
5:08 AM 46.4 °F 42.9 °F 44.6 °F 93% 30.14 in 10.0 mi ESE 6.9 mph - N/A   Overcast
5:29 AM 46.4 °F 44.3 °F 44.6 °F 93% 30.14 in 10.0 mi Variable 4.6 mph - N/A   Overcast
5:49 AM 46.4 °F 44.3 °F 46.4 °F 100% 30.14 in 5.0 mi East 4.6 mph - N/A   Light Drizzle
5:55 AM 46.6 °F - 45.3 °F 95% 30.14 in 8.0 mi SSW 4.6 mph - N/A Rain Light Rain Showers
6:09 AM 46.4 °F - 46.4 °F 100% 30.14 in 9.0 mi Variable 2.3 mph - N/A   Mostly Cloudy
6:49 AM 46.4 °F 40.1 °F 46.4 °F 100% 30.13 in 10.0 mi ESE 15.0 mph - N/A   Overcast
6:55 AM 46.6 °F - 45.9 °F 97% 30.13 in 10.0 mi ESE 16.1 mph - N/A   Overcast
7:55 AM 46.4 °F 39.8 °F 46.4 °F 100% 30.12 in 10.0 mi ESE 16.1 mph - N/A   Overcast
8:29 AM 46.4 °F 39.2 °F 46.4 °F 100% 30.11 in 10.0 mi SE 18.4 mph - N/A   Overcast
8:55 AM 46.4 °F 39.2 °F 46.4 °F 100% 30.11 in 10.0 mi ESE 18.4 mph - N/A   Overcast
9:55 AM 45.5 °F 39.6 °F 46.2 °F 100% 30.12 in 10.0 mi ESE 12.7 mph - N/A   Overcast
10:14 AM - - - N/A% 30.13 in 8.0 mi ESE 11.5 mph - N/A   Light Drizzle
10:34 AM - - - N/A% 30.13 in 10.0 mi SE 10.4 mph - N/A   Mostly Cloudy
10:54 AM - - - N/A% 30.13 in 9.0 mi ESE 10.4 mph - N/A   Overcast
10:55 AM - - - N/A% 30.13 in 6.0 mi ESE 10.4 mph - N/A   Overcast
11:14 AM 46.4 °F 42.4 °F 46.4 °F 100% 30.13 in 6.0 mi ESE 8.1 mph - N/A Rain Light Rain Showers
11:34 AM 46.4 °F 41.9 °F 46.4 °F 100% 30.13 in 3.0 mi East 9.2 mph - N/A Rain Light Rain Showers
11:55 AM 46.4 °F 42.9 °F 46.2 °F 99% 30.14 in 5.0 mi Variable 6.9 mph - 0.00 in Rain Light Rain Showers
12:14 PM 46.4 °F 41.5 °F 46.4 °F 100% 30.13 in 9.0 mi ESE 10.4 mph 23.0 mph N/A Rain Light Rain Showers
12:34 PM 46.4 °F 41.9 °F 44.6 °F 93% 30.13 in 10.0 mi SE 9.2 mph 18.4 mph N/A   Overcast
12:54 PM 48.2 °F - 46.4 °F 93% 30.13 in 10.0 mi ESE 10.4 mph - N/A   Mostly Cloudy
12:55 PM 47.3 °F - 46.0 °F 95% 30.13 in 10.0 mi East 10.4 mph - 0.00 in   Mostly Cloudy
1:55 PM 47.7 °F - 44.6 °F 89% 30.12 in 10.0 mi ESE 10.4 mph - N/A   Overcast
2:55 PM 47.7 °F - 44.8 °F 90% 30.11 in 10.0 mi East 10.4 mph 16.1 mph N/A   Mostly Cloudy
3:14 PM 48.2 °F - 44.6 °F 87% 30.10 in 10.0 mi ESE 8.1 mph - N/A   Mostly Cloudy
3:34 PM 46.4 °F 41.5 °F 46.4 °F 100% 30.10 in 10.0 mi East 10.4 mph - N/A   Overcast
3:54 PM 46.4 °F 41.9 °F 46.4 °F 100% 30.10 in 10.0 mi East 9.2 mph - N/A   Overcast
3:55 PM 46.8 °F - 46.6 °F 99% 30.10 in 10.0 mi ENE 9.2 mph - N/A   Overcast
4:14 PM 46.4 °F 40.7 °F 46.4 °F 100% 30.09 in 10.0 mi ENE 12.7 mph - N/A   Overcast
4:34 PM 46.4 °F 41.5 °F 46.4 °F 100% 30.09 in 10.0 mi East 10.4 mph - N/A   Overcast
4:54 PM 46.4 °F 41.1 °F 44.6 °F 93% 30.09 in 10.0 mi East 11.5 mph - N/A   Overcast
4:55 PM 46.9 °F - 45.1 °F 93% 30.09 in 10.0 mi ENE 10.4 mph - N/A   Overcast
5:55 PM 46.8 °F - 45.3 °F 95% 30.07 in 10.0 mi East 11.5 mph - N/A   Mostly Cloudy
6:34 PM 46.4 °F 41.5 °F 44.6 °F 93% 30.06 in 10.0 mi East 10.4 mph - N/A   Scattered Clouds
6:55 PM 45.9 °F 41.2 °F 44.6 °F 95% 30.06 in 10.0 mi East 9.2 mph - N/A   Scattered Clouds
7:55 PM 45.3 °F 40.6 °F 44.6 °F 97% 30.05 in 10.0 mi East 9.2 mph - N/A   Clear
8:55 PM 46.2 °F 39.3 °F 45.1 °F 96% 30.03 in 10.0 mi East 17.3 mph 23.0 mph N/A   Clear
9:55 PM 45.9 °F 38.3 °F 45.0 °F 97% 30.03 in 10.0 mi ESE 19.6 mph 27.6 mph N/A   Clear
10:55 PM 46.4 °F 38.3 °F 44.1 °F 92% 30.02 in 10.0 mi East 23.0 mph - N/A   Clear
11:55 PM 47.5 °F - 43.3 °F 86% 30.01 in 10.0 mi ESE 21.9 mph - N/A   Clear